Terug naar catalogus

NOAA 16 DEB

ActiefPO
NORAD 41224·DEBRIS·🇺🇸 United States

Gelanceerd Sep 21, 2000 vanaf Vandenberg Space Force Base

Loading…

Volgende Passages (komende 24 uur)

TLE

VersSource: Space-Track

Epoch: Sep 14, 2026, 09:02 UTC

1 41224U 00055ED  26257.37680682  .00022681  00000-0  34317-2 0  9994
2 41224  98.8915  49.9045 0016298 136.1725 224.0777 14.74126482557181

Volg NOAA 16 DEB in realtime met AllMySat

Download on the App Store